[[{"header":{"parameterUnit":"m.s-1","parameterCategory":1,"la1":30.2992,"la2":30.254,"lo1":-89.0895,"lo2":-89.0443,"dy":0.0025,"dx":0.0025,"nx":19,"ny":19,"refTime":"2026-05-04T03:00:00:Z","depth":0,"parameterNumber":2,"parameterNumberName":"U-component_of_WINDS"},"data":[0,0,0,-0.1366,-0.1367,-0.1439,-0.144,-0.1528,-0.1528,0,0,0,0,0,0,0,0,0,0,0,-0.134,-0.134,-0.1366,-0.1367,-0.1439,-0.144,-0.1528,-0.1528,0,0,0,0,0,0,0,0,0,0,0,-0.134,-0.134,-0.1341,-0.1368,-0.1439,-0.144,-0.1527,-0.1475,0,0,0,0,0,0,0,0,0,0,-0.1406,-0.1377,-0.134,-0.1341,-0.1368,-0.1439,-0.144,-0.1473,-0.1478,-0.1493,0,-0.1502,0,-0.1517,-0.1534,-0.1534,0,0,0,-0.1371,-0.1372,-0.1396,-0.1341,-0.1369,-0.1439,-0.1408,-0.1476,-0.1482,-0.15,-0.1504,-0.1507,-0.1518,-0.1534,-0.1535,-0.1601,-0.1602,0,0,-0.1367,-0.1351,-0.1391,-0.1399,-0.1386,-0.1406,-0.141,-0.148,-0.1483,-0.1504,-0.1509,-0.152,-0.1535,-0.1536,-0.1601,-0.1601,0,0,0,-0.1353,-0.1348,-0.137,-0.1396,-0.1409,-0.1408,-0.1413,-0.148,-0.1489,-0.151,-0.1521,-0.1535,-0.1536,-0.1601,-0.1601,-0.1592,0,0,0,-0.1351,-0.134,-0.1368,-0.1358,-0.1407,-0.1445,-0.1411,-0.1484,-0.1492,-0.152,-0.1535,-0.1537,-0.1601,-0.1601,-0.1592,-0.159,0,0,0,-0.1337,-0.1338,-0.1347,-0.1357,-0.1387,-0.1444,-0.1457,-0.1486,-0.1498,-0.1534,-0.1537,-0.1601,-0.1601,-0.1592,-0.159,-0.1604,0,0,0,-0.1317,-0.1337,-0.1346,-0.1372,-0.1387,-0.1437,-0.1457,-0.1495,-0.1525,-0.1536,-0.1601,-0.1601,-0.1592,-0.159,-0.1603,-0.1612,-0.1614,0,0,-0.1333,-0.1338,-0.1355,-0.1365,-0.1409,-0.1427,-0.1471,-0.1514,-0.1534,-0.1578,-0.158,-0.1592,-0.159,-0.1603,-0.1629,-0.163,0,0,0,-0.1354,-0.1366,-0.1382,-0.1408,-0.1441,-0.1471,-0.1509,-0.1525,-0.1564,-0.1552,-0.16,-0.16,-0.1609,-0.1614,-0.1615,-0.1624,-0.1603,-0.1603,-0.1603,-0.1352,-0.1375,-0.1406,-0.1438,-0.1464,-0.1504,-0.1528,-0.1558,-0.1574,-0.1585,-0.1598,-0.161,-0.1616,-0.1617,-0.1626,-0.1604,-0.1604,-0.1604,-0.1604,-0.1378,-0.1399,-0.142,-0.1457,-0.1482,-0.1514,-0.1555,-0.1565,-0.16,-0.1602,-0.1611,-0.1611,-0.1617,-0.1627,-0.1604,-0.1604,-0.1604,-0.1604,-0.1604,-0.1379,-0.1393,-0.1413,-0.1455,-0.1486,-0.1519,-0.1552,-0.1574,-0.1595,-0.1604,-0.1622,-0.1622,-0.1626,-0.1611,-0.1611,-0.1611,-0.1611,-0.1611,-0.1611,-0.1373,-0.1395,-0.1419,-0.1457,-0.1478,-0.151,-0.1552,-0.1574,-0.1605,-0.1618,-0.1619,-0.1635,-0.1613,-0.1607,-0.1612,-0.1612,-0.1612,-0.1612,-0.1612,-0.139,-0.1391,-0.1427,-0.1449,-0.1497,-0.1527,-0.1555,-0.1599,-0.1621,-0.1637,-0.1652,-0.1632,-0.1639,-0.1638,-0.1634,-0.1645,-0.1645,-0.1645,-0.1645,-0.1392,-0.1398,-0.1442,-0.1475,-0.151,-0.154,-0.1584,-0.1618,-0.1653,-0.1669,-0.1671,-0.1667,-0.1665,-0.1674,-0.1672,-0.1669,-0.1689,-0.1689,-0.1689,-0.1405,-0.1416,-0.1447,-0.1481,-0.1521,-0.1555,-0.1598,-0.1637,-0.1677,-0.1691,-0.1682,-0.168,-0.1674,-0.1671,-0.1684,-0.1681,-0.1675,0,0]},{"header":{"parameterUnit":"m.s-1","parameterCategory":1,"la1":30.2992,"la2":30.254,"lo1":-89.0895,"lo2":-89.0443,"dy":0.0025,"dx":0.0025,"nx":19,"ny":19,"refTime":"2026-05-04T03:00:00:Z","depth":0,"parameterNumber":3,"parameterNumberName":"V-component_of_WINDS"},"data":[0,0,0,5.4158,5.4161,5.4259,5.4259,5.4396,5.4398,0,0,0,0,0,0,0,0,0,0,0,5.414,5.4142,5.4158,5.4161,5.4259,5.4259,5.4396,5.4398,0,0,0,0,0,0,0,0,0,0,0,5.414,5.4141,5.4143,5.4161,5.4259,5.4259,5.4396,5.4317,0,0,0,0,0,0,0,0,0,0,5.4219,5.4214,5.4141,5.4143,5.4162,5.4258,5.4259,5.4313,5.4322,5.4358,0,5.4396,0,5.4399,5.4408,5.4408,0,0,0,5.4152,5.4207,5.4224,5.4143,5.4163,5.4258,5.4212,5.4318,5.4328,5.437,5.4398,5.4403,5.4402,5.4409,5.441,5.4652,5.4653,0,0,5.4147,5.4163,5.4217,5.4231,5.422,5.4209,5.4215,5.4324,5.4354,5.4399,5.4406,5.4404,5.441,5.4411,5.465,5.4652,0,0,0,5.4137,5.416,5.4173,5.4226,5.4242,5.4212,5.4219,5.4349,5.4352,5.4407,5.4405,5.4411,5.4413,5.4648,5.4651,5.474,0,0,0,5.4134,5.4154,5.4172,5.4183,5.4241,5.4298,5.4243,5.4345,5.4357,5.4405,5.4411,5.4414,5.4647,5.465,5.4734,5.4779,0,0,0,5.413,5.4154,5.4172,5.4183,5.4226,5.4296,5.4305,5.4347,5.4356,5.4409,5.4415,5.4646,5.4649,5.4729,5.477,5.4844,0,0,0,5.4131,5.4252,5.4174,5.4308,5.4225,5.4352,5.4304,5.4397,5.4453,5.4412,5.4647,5.4651,5.4727,5.4764,5.4838,5.4907,5.4939,0,0,5.4292,5.4272,5.4349,5.4282,5.4426,5.4335,5.4491,5.4527,5.4517,5.4606,5.4612,5.4736,5.4769,5.4843,5.5113,5.5138,0,0,0,5.4406,5.4461,5.4496,5.455,5.458,5.4608,5.4618,5.463,5.4705,5.4568,5.4784,5.4803,5.4846,5.4877,5.4899,5.4932,5.4667,5.4667,5.4666,5.4657,5.4637,5.4761,5.4752,5.4805,5.4812,5.4851,5.4868,5.4835,5.4886,5.4911,5.5078,5.5116,5.5132,5.5167,5.4949,5.4949,5.4949,5.495,5.4889,5.4962,5.4911,5.5013,5.499,5.5075,5.5085,5.5057,5.513,5.5058,5.5094,5.5015,5.516,5.5189,5.4956,5.4955,5.4954,5.4954,5.4953,5.5048,5.5079,5.5092,5.5164,5.5222,5.5208,5.5279,5.5256,5.5235,5.5271,5.5292,5.5291,5.5283,5.5284,5.5284,5.5285,5.5285,5.5286,5.5286,5.5207,5.5219,5.5283,5.5322,5.5351,5.5386,5.5392,5.5419,5.5442,5.5419,5.5419,5.5377,5.518,5.5128,5.5295,5.5293,5.5292,5.5291,5.5291,5.5444,5.5386,5.5485,5.5514,5.5554,5.561,5.558,5.5636,5.5655,5.569,5.5639,5.5499,5.5475,5.5458,5.5415,5.5646,5.5646,5.5646,5.5646,5.5576,5.5562,5.5655,5.5701,5.5744,5.5725,5.5832,5.5837,5.5832,5.5841,5.5805,5.5747,5.5731,5.5717,5.5695,5.5654,5.594,5.5941,5.5941,5.5718,5.5707,5.5804,5.5798,5.5828,5.5852,5.5951,5.6004,5.5987,5.5952,5.5847,5.5835,5.5741,5.5713,5.5674,5.5639,5.5564,0,0]}]]